SHT6G EGLL-EGPF

Flight info

Callsign SHT6G
Flight time 0h 58m
Altitude 32000
Route ULTIB T420 TNT UN57 POL UN601 RIBEL DCT ASLIB
Aircraft A320/M-SDE3FGHIJ1KRWXY/SB1

Departure

Time 2026-05-05 14:22
Airport London Heathrow Airport (EGLL)

Arrival

Time 2026-05-05 15:21
Airport Glasgow Airport (EGPF)
Time Latitude Longitude Altitude Speed Heading
2026-05-05 13:35 51.46930 -0.48859 86 ft 0 kts 360°
2026-05-05 14:12 51.46924 -0.48859 86 ft 4 kts 360°
2026-05-05 14:12 51.46899 -0.48859 86 ft 1 kts 360°
2026-05-05 14:12 51.46881 -0.48855 88 ft 4 kts 302°
2026-05-05 14:13 51.46876 -0.48819 88 ft 4 kts 270°
2026-05-05 14:13 51.46876 -0.48776 86 ft 4 kts 270°
2026-05-05 14:13 51.46877 -0.48734 86 ft 3 kts 270°
2026-05-05 14:13 51.46877 -0.48702 86 ft 2 kts 270°
2026-05-05 14:14 51.46877 -0.48700 89 ft 0 kts 270°
2026-05-05 14:17 51.46877 -0.48716 86 ft 3 kts 270°
2026-05-05 14:17 51.46877 -0.48719 86 ft 0 kts 270°
2026-05-05 14:18 51.46868 -0.48736 87 ft 6 kts 223°
2026-05-05 14:18 51.46851 -0.48746 88 ft 8 kts 196°
2026-05-05 14:19 51.46785 -0.48745 89 ft 9 kts 180°
2026-05-05 14:19 51.46708 -0.48747 88 ft 13 kts 181°
2026-05-05 14:19 51.46637 -0.48751 88 ft 12 kts 189°
2026-05-05 14:19 51.46572 -0.48782 90 ft 12 kts 194°
2026-05-05 14:20 51.46498 -0.48755 88 ft 9 kts 138°
2026-05-05 14:20 51.46478 -0.48634 89 ft 14 kts 92°
2026-05-05 14:20 51.46477 -0.48592 86 ft 0 kts 90°
2026-05-05 14:21 51.46477 -0.48577 86 ft 8 kts 89°
2026-05-05 14:22 51.46482 -0.48079 89 ft 79 kts 90°
2026-05-05 14:22 51.46486 -0.46879 92 ft 132 kts 89°
2026-05-05 14:22 51.46494 -0.45179 200 ft 164 kts 88°
2026-05-05 14:22 51.46507 -0.43434 860 ft 158 kts 87°
2026-05-05 14:23 51.46605 -0.41653 1428 ft 164 kts 71°
2026-05-05 14:23 51.47240 -0.40022 1707 ft 186 kts 48°
2026-05-05 14:23 51.48138 -0.38343 1994 ft 212 kts 49°
2026-05-05 14:23 51.49146 -0.36432 2429 ft 237 kts 49°
2026-05-05 14:24 51.50246 -0.34335 3120 ft 251 kts 49°
2026-05-05 14:24 51.51371 -0.32175 4078 ft 255 kts 49°
2026-05-05 14:24 51.52352 -0.29769 4982 ft 262 kts 67°
2026-05-05 14:24 51.52963 -0.26989 5891 ft 266 kts 70°
2026-05-05 14:25 51.53560 -0.24159 6800 ft 270 kts 70°
2026-05-05 14:25 51.54183 -0.21293 7664 ft 273 kts 65°
2026-05-05 14:25 51.55348 -0.18914 8440 ft 277 kts 33°
2026-05-05 14:25 51.57170 -0.17935 9213 ft 282 kts
2026-05-05 14:26 51.59058 -0.18707 9975 ft 287 kts 331°
2026-05-05 14:26 51.60656 -0.20778 10360 ft 308 kts 312°
2026-05-05 14:26 51.62035 -0.23592 10599 ft 331 kts 310°
2026-05-05 14:26 51.63656 -0.26298 11145 ft 339 kts 321°
2026-05-05 14:27 51.65591 -0.28496 11842 ft 343 kts 329°
2026-05-05 14:27 51.67692 -0.30366 12569 ft 346 kts 333°
2026-05-05 14:27 51.69851 -0.32130 13276 ft 350 kts 334°
2026-05-05 14:27 51.72031 -0.33931 13974 ft 354 kts 333°
2026-05-05 14:28 51.74210 -0.35825 14662 ft 358 kts 331°
2026-05-05 14:28 51.76360 -0.37796 15311 ft 362 kts 330°
2026-05-05 14:28 51.78542 -0.39878 15949 ft 366 kts 329°
2026-05-05 14:28 51.80733 -0.42017 16562 ft 370 kts 328°
2026-05-05 14:29 51.82939 -0.44192 17166 ft 373 kts 329°
2026-05-05 14:29 51.85170 -0.46390 17766 ft 377 kts 329°
2026-05-05 14:29 51.87419 -0.48603 18340 ft 381 kts 329°
2026-05-05 14:29 51.89698 -0.50837 18928 ft 385 kts 329°
2026-05-05 14:30 51.92007 -0.53094 19513 ft 390 kts 329°
2026-05-05 14:30 51.94347 -0.55366 20109 ft 394 kts 328°
2026-05-05 14:30 51.96709 -0.57659 20751 ft 398 kts 328°
2026-05-05 14:30 51.99099 -0.59982 21350 ft 401 kts 328°
2026-05-05 14:31 52.01503 -0.62327 21913 ft 405 kts 328°
2026-05-05 14:31 52.03929 -0.64699 22450 ft 408 kts 327°
2026-05-05 14:31 52.06365 -0.67085 23045 ft 410 kts 327°
2026-05-05 14:31 52.08812 -0.69493 23560 ft 413 kts 327°
2026-05-05 14:32 52.11273 -0.71928 24033 ft 416 kts 327°
2026-05-05 14:32 52.13760 -0.74386 24509 ft 420 kts 327°
2026-05-05 14:32 52.16268 -0.76861 24994 ft 423 kts 327°
2026-05-05 14:32 52.18791 -0.79355 25475 ft 426 kts 326°
2026-05-05 14:33 52.21333 -0.81873 25937 ft 429 kts 326°
2026-05-05 14:33 52.23894 -0.84410 26384 ft 432 kts 326°
2026-05-05 14:33 52.26472 -0.86964 26786 ft 435 kts 326°
2026-05-05 14:33 52.29060 -0.89530 27162 ft 437 kts 326°
2026-05-05 14:34 52.31670 -0.92120 27519 ft 439 kts 326°
2026-05-05 14:34 52.34288 -0.94729 27861 ft 442 kts 326°
2026-05-05 14:34 52.36913 -0.97355 28194 ft 444 kts 326°
2026-05-05 14:34 52.39551 -0.99997 28519 ft 446 kts 326°
2026-05-05 14:35 52.42201 -1.02649 28839 ft 448 kts 326°
2026-05-05 14:35 52.44868 -1.05320 29148 ft 450 kts 326°
2026-05-05 14:35 52.47545 -1.07999 29454 ft 452 kts 326°
2026-05-05 14:35 52.50237 -1.10701 29763 ft 454 kts 326°
2026-05-05 14:36 52.52929 -1.13409 30112 ft 454 kts 326°
2026-05-05 14:36 52.55623 -1.16123 30545 ft 453 kts 326°
2026-05-05 14:36 52.58301 -1.18823 30958 ft 452 kts 326°
2026-05-05 14:36 52.60984 -1.21527 31365 ft 451 kts 326°
2026-05-05 14:37 52.63657 -1.24224 31758 ft 451 kts 326°
2026-05-05 14:37 52.66329 -1.26929 31959 ft 451 kts 326°
2026-05-05 14:37 52.71632 -1.32320 31998 ft 446 kts 326°
2026-05-05 14:38 52.76908 -1.37699 31999 ft 445 kts 326°
2026-05-05 14:38 52.82172 -1.43079 31999 ft 445 kts 326°
2026-05-05 14:39 52.87435 -1.48475 31997 ft 444 kts 326°
2026-05-05 14:39 52.92686 -1.53872 32002 ft 444 kts 326°
2026-05-05 14:40 52.97933 -1.59273 32007 ft 444 kts 326°
2026-05-05 14:40 53.03178 -1.64693 32013 ft 444 kts 326°
2026-05-05 14:41 53.08763 -1.69078 32017 ft 446 kts 338°
2026-05-05 14:41 53.14574 -1.72662 32019 ft 446 kts 338°
2026-05-05 14:42 53.20380 -1.76262 32022 ft 445 kts 338°
2026-05-05 14:42 53.26177 -1.79878 32029 ft 444 kts 338°
2026-05-05 14:43 53.31965 -1.83498 32038 ft 444 kts 338°
2026-05-05 14:43 53.37743 -1.87116 32038 ft 443 kts 338°
2026-05-05 14:44 53.43509 -1.90750 32036 ft 443 kts 338°
2026-05-05 14:44 53.49274 -1.94384 32041 ft 442 kts 338°
2026-05-05 14:45 53.54987 -1.97987 32043 ft 441 kts 338°
2026-05-05 14:45 53.60733 -2.01629 32042 ft 441 kts 338°
2026-05-05 14:46 53.66469 -2.05280 32041 ft 440 kts 337°
2026-05-05 14:46 53.72101 -2.08874 32042 ft 440 kts 337°
2026-05-05 14:47 53.77812 -2.12568 32041 ft 439 kts 336°
2026-05-05 14:47 53.83477 -2.16450 32039 ft 439 kts 336°
2026-05-05 14:48 53.89121 -2.20381 32037 ft 439 kts 336°
2026-05-05 14:48 53.93859 -2.23655 32040 ft 439 kts 336°
2026-05-05 14:49 53.99522 -2.27530 32042 ft 439 kts 336°
2026-05-05 14:49 54.04984 -2.32111 32045 ft 437 kts 329°
2026-05-05 14:50 54.10313 -2.37108 32052 ft 437 kts 329°
2026-05-05 14:50 54.15648 -2.42104 32058 ft 437 kts 329°
2026-05-05 14:51 54.20965 -2.47116 32060 ft 437 kts 329°
2026-05-05 14:51 54.26283 -2.52140 32060 ft 436 kts 329°
2026-05-05 14:52 54.31589 -2.57159 32060 ft 435 kts 329°
2026-05-05 14:52 54.36889 -2.62198 32057 ft 435 kts 329°
2026-05-05 14:53 54.42148 -2.67207 32056 ft 435 kts 328°
2026-05-05 14:53 54.47476 -2.72300 32058 ft 435 kts 328°
2026-05-05 14:54 54.52733 -2.77335 32059 ft 435 kts 328°
2026-05-05 14:54 54.58025 -2.82414 32042 ft 436 kts 328°
2026-05-05 14:55 54.63323 -2.87514 30851 ft 436 kts 328°
2026-05-05 14:55 54.65998 -2.90104 29424 ft 442 kts 328°
2026-05-05 14:55 54.68624 -2.92650 28945 ft 422 kts 328°
2026-05-05 14:56 54.71155 -2.95109 28464 ft 415 kts 328°
2026-05-05 14:56 54.73661 -2.97548 27923 ft 412 kts 328°
2026-05-05 14:56 54.76154 -2.99973 27388 ft 410 kts 328°
2026-05-05 14:56 54.78628 -3.02381 26865 ft 407 kts 328°
2026-05-05 14:57 54.81084 -3.04771 26339 ft 404 kts 328°
2026-05-05 14:57 54.83526 -3.07147 25837 ft 401 kts 328°
2026-05-05 14:57 54.85952 -3.09511 25483 ft 399 kts 328°
2026-05-05 14:57 54.88364 -3.11867 25100 ft 397 kts 328°
2026-05-05 14:58 54.90763 -3.14226 24712 ft 395 kts 328°
2026-05-05 14:58 54.93150 -3.16581 24311 ft 393 kts 328°
2026-05-05 14:58 54.95520 -3.18913 23942 ft 391 kts 328°
2026-05-05 14:58 54.97878 -3.21238 23561 ft 388 kts 328°
2026-05-05 14:59 55.00217 -3.23547 23186 ft 385 kts 328°
2026-05-05 14:59 55.02543 -3.25843 22808 ft 383 kts 328°
2026-05-05 14:59 55.04851 -3.28123 22437 ft 380 kts 328°
2026-05-05 14:59 55.07148 -3.30389 22076 ft 377 kts 327°
2026-05-05 15:00 55.09423 -3.32639 21698 ft 375 kts 327°
2026-05-05 15:00 55.10950 -3.34157 21458 ft 373 kts 327°
2026-05-05 15:00 55.13925 -3.37118 20975 ft 370 kts 327°
2026-05-05 15:00 55.16152 -3.39340 20610 ft 367 kts 327°
2026-05-05 15:01 55.18365 -3.41550 20250 ft 365 kts 327°
2026-05-05 15:01 55.20569 -3.43745 19853 ft 364 kts 327°
2026-05-05 15:01 55.22771 -3.45941 19286 ft 364 kts 327°
2026-05-05 15:01 55.24967 -3.48136 18754 ft 363 kts 327°
2026-05-05 15:02 55.27154 -3.50324 18228 ft 361 kts 327°
2026-05-05 15:02 55.29323 -3.52501 17705 ft 359 kts 327°
2026-05-05 15:02 55.31483 -3.54671 17191 ft 356 kts 327°
2026-05-05 15:02 55.33623 -3.56825 16676 ft 353 kts 327°
2026-05-05 15:03 55.35745 -3.58967 16157 ft 350 kts 327°
2026-05-05 15:03 55.37846 -3.61095 15654 ft 348 kts 327°
2026-05-05 15:03 55.39935 -3.63209 15147 ft 345 kts 327°
2026-05-05 15:03 55.42009 -3.65301 14650 ft 342 kts 328°
2026-05-05 15:04 55.44090 -3.67399 14150 ft 338 kts 328°
2026-05-05 15:04 55.46094 -3.69427 13686 ft 335 kts 328°
2026-05-05 15:04 55.48076 -3.71436 13543 ft 322 kts 328°
2026-05-05 15:04 55.49972 -3.73355 13408 ft 305 kts 327°
2026-05-05 15:05 55.53485 -3.76930 12724 ft 284 kts 324°
2026-05-05 15:05 55.54877 -3.79372 12474 ft 278 kts 300°
2026-05-05 15:05 55.55781 -3.82386 12219 ft 278 kts 296°
2026-05-05 15:06 55.56668 -3.85414 11951 ft 277 kts 297°
2026-05-05 15:06 55.57556 -3.88429 11599 ft 276 kts 297°
2026-05-05 15:06 55.58445 -3.91432 11237 ft 276 kts 297°
2026-05-05 15:06 55.59338 -3.94435 10864 ft 276 kts 297°
2026-05-05 15:07 55.60227 -3.97429 10495 ft 275 kts 297°
2026-05-05 15:07 55.61115 -4.00431 10122 ft 276 kts 297°
2026-05-05 15:07 55.62007 -4.03450 9745 ft 277 kts 298°
2026-05-05 15:07 55.62901 -4.06474 9366 ft 278 kts 298°
2026-05-05 15:08 55.63796 -4.09499 8992 ft 278 kts 298°
2026-05-05 15:08 55.64689 -4.12535 8620 ft 278 kts 298°
2026-05-05 15:08 55.65577 -4.15565 8259 ft 278 kts 298°
2026-05-05 15:08 55.66464 -4.18586 7938 ft 276 kts 298°
2026-05-05 15:09 55.67355 -4.21617 7554 ft 276 kts 298°
2026-05-05 15:09 55.68241 -4.24631 7188 ft 276 kts 299°
2026-05-05 15:09 55.69125 -4.27643 6804 ft 276 kts 299°
2026-05-05 15:09 55.70003 -4.30653 6450 ft 275 kts 299°
2026-05-05 15:10 55.70878 -4.33658 6136 ft 273 kts 299°
2026-05-05 15:10 55.71743 -4.36626 5651 ft 270 kts 299°
2026-05-05 15:10 55.72597 -4.39570 5233 ft 267 kts 299°
2026-05-05 15:10 55.73437 -4.42474 4864 ft 260 kts 299°
2026-05-05 15:11 55.74245 -4.45271 4517 ft 250 kts 299°
2026-05-05 15:11 55.75026 -4.47975 4190 ft 241 kts 299°
2026-05-05 15:11 55.75774 -4.50560 3948 ft 229 kts 300°
2026-05-05 15:11 55.76373 -4.53043 3887 ft 212 kts 282°
2026-05-05 15:12 55.76309 -4.55607 3830 ft 210 kts 252°
2026-05-05 15:12 55.75546 -4.57778 3754 ft 208 kts 220°
2026-05-05 15:12 55.74412 -4.59357 3668 ft 208 kts 216°
2026-05-05 15:12 55.73266 -4.60915 3574 ft 207 kts 216°
2026-05-05 15:13 55.72127 -4.62467 3510 ft 204 kts 216°
2026-05-05 15:13 55.71045 -4.63946 3488 ft 188 kts 216°
2026-05-05 15:13 55.70042 -4.65317 3442 ft 176 kts 216°
2026-05-05 15:13 55.69185 -4.66758 3368 ft 166 kts 239°
2026-05-05 15:14 55.68854 -4.68650 3323 ft 161 kts 272°
2026-05-05 15:14 55.69118 -4.70527 3291 ft 155 kts 305°
2026-05-05 15:14 55.69849 -4.71855 3258 ft 149 kts 335°
2026-05-05 15:14 55.70814 -4.72364 3232 ft 144 kts
2026-05-05 15:15 55.71766 -4.72023 3202 ft 139 kts 30°
2026-05-05 15:15 55.72505 -4.70963 3158 ft 136 kts 56°
2026-05-05 15:15 55.73098 -4.69645 3137 ft 137 kts 50°
2026-05-05 15:15 55.73732 -4.68399 3104 ft 136 kts 49°
2026-05-05 15:16 55.74365 -4.67194 3085 ft 136 kts 49°
2026-05-05 15:16 55.75025 -4.65955 3033 ft 135 kts 48°
2026-05-05 15:16 55.75677 -4.64739 2953 ft 136 kts 48°
2026-05-05 15:16 55.76334 -4.63519 2814 ft 137 kts 49°
2026-05-05 15:17 55.76990 -4.62300 2672 ft 139 kts 47°
2026-05-05 15:17 55.77654 -4.61071 2484 ft 135 kts 49°
2026-05-05 15:17 55.78302 -4.59870 2299 ft 134 kts 48°
2026-05-05 15:17 55.78947 -4.58674 2121 ft 133 kts 48°
2026-05-05 15:18 55.79588 -4.57484 1957 ft 133 kts 48°
2026-05-05 15:18 55.80227 -4.56301 1778 ft 133 kts 48°
2026-05-05 15:18 55.80854 -4.55138 1612 ft 132 kts 49°
2026-05-05 15:18 55.81488 -4.53961 1435 ft 131 kts 49°
2026-05-05 15:19 55.82117 -4.52790 1262 ft 131 kts 48°
2026-05-05 15:19 55.82746 -4.51619 1085 ft 130 kts 48°
2026-05-05 15:19 55.83372 -4.50452 920 ft 131 kts 49°
2026-05-05 15:19 55.83999 -4.49282 736 ft 131 kts 49°
2026-05-05 15:20 55.84630 -4.48107 571 ft 132 kts 48°
2026-05-05 15:20 55.85266 -4.46924 389 ft 132 kts 48°
2026-05-05 15:20 55.85899 -4.45743 219 ft 133 kts 48°
2026-05-05 15:20 55.86536 -4.44551 40 ft 130 kts 48°
2026-05-05 15:21 55.87069 -4.43569 29 ft 76 kts 45°
2026-05-05 15:21 55.87230 -4.43275 29 ft 1 kts 59°
2026-05-05 15:21 55.87213 -4.43198 29 ft 12 kts 111°
2026-05-05 15:21 55.87206 -4.43018 29 ft 18 kts 90°
2026-05-05 15:22 55.87205 -4.42827 29 ft 11 kts 91°
2026-05-05 15:22 55.87167 -4.42748 29 ft 11 kts 188°
2026-05-05 15:22 55.87085 -4.42789 29 ft 14 kts 196°
2026-05-05 15:22 55.87000 -4.42849 29 ft 8 kts 205°
2026-05-05 15:23 55.86938 -4.42901 29 ft 11 kts 205°
2026-05-05 15:23 55.86864 -4.42974 29 ft 13 kts 225°
2026-05-05 15:23 55.86831 -4.43143 29 ft 16 kts 255°
2026-05-05 15:23 55.86810 -4.43260 29 ft 9 kts 241°
2026-05-05 15:24 55.86757 -4.43289 29 ft 6 kts 200°
2026-05-05 15:24 55.86731 -4.43344 29 ft 4 kts 237°
2026-05-05 15:24 55.86724 -4.43363 29 ft 0 kts 237°